{"data":{"norad_id":37387,"intl_designator":"2011-015A","name":"RESOURCESAT-2","alt_names":[],"object_type":"PAYLOAD","status":"ACTIVE","operator":null,"country":"IND","launch_date":"2011-04-20","launch_site_code":"SRILR","launch_vehicle":null,"mission":null,"orbit_class":"UNKNOWN","rcs_meters":5.5918,"size_class":null,"mass_kg":null,"dimensions":null,"purposes":["earth_obs"],"wikipedia_slug":null,"has_3d_model":false,"image_url":null,"decayed_at":null,"tle_current":{"epoch":"2026-09-20T04:13:31.643616Z","epoch_age_seconds":42457,"freshness":"FRESH","line1":"1 37387U 11015A   26263.17606069  .00000008  00000+0  23902-4 0  9997","line2":"2 37387  98.7553 329.9175 0010881 349.3128  10.7817 14.21610290799679","mean_motion":14.2161029,"eccentricity":0.0010881,"inclination_deg":98.7553,"raan_deg":329.9175,"arg_perigee_deg":349.3128,"mean_anomaly_deg":10.7817,"bstar":2.3902e-5,"rev_number":79967,"period_min":101.29358306769,"perigee_km":812.07986380785,"apogee_km":827.74425817438,"semimajor_km":7198.0490609911,"source":"CELESTRAK","updated_at":"2026-09-20T09:00:33.891800Z"}}}